Location: Alphen
(52.1351°N, 4.6549°E)
Time: 01:57:28
(UTC+00:00)

SJ-12 - Pass Details

Date: 27 January 2021
Orbit: 568 x 584 km, 97.7° (Epoch: 27 February)

Event Time Altitude Azimuth Distance (km) Brightness Sun altitude
Rises 04:54:57 0° 14° (NNE) 2,825 7.6 -23.4°
Reaches altitude 10° 04:57:08 10° 15° (NNE) 1,920 6.7 -23.1°
Maximum altitude 05:01:18 83° 103° (ESE) 596 3.9 -22.5°
Enters shadow 05:04:36 16° 192° (SSW) 1,561 6.0 -22.0°
